Location: Twentynine Palms Airport
(34.1316°N, 115.9458°W)
Time: 00:07:21
(UTC-07:00)

Amateur Radio Satellites - All Passes

Search period start: 29 March 2015 23:37
Search period end: 30 March 2015 23:37
Location: Twentynine Palms Airport, 34.1316°N, 115.9458°W

Satellite Date Start Highest point End Downlink Frequencies (MHz)
Time Altitude Azimuth
CUBEBUG 1 29 Mar 23:38:37 23:42:59 59° 260° (W) 23:47:20 437.445
VELOX 1 29 Mar 23:40:57 23:44:37 24° 265° (W) 23:48:12 145.980
NANOSAT C BR1 29 Mar 23:41:48 23:46:01 72° 101° (ESE) 23:50:14 145.865
SPROUT 29 Mar 23:46:07 23:50:02 36° 74° (ENE) 23:54:00 437.525
AISAT 29 Mar 23:46:11 23:49:36 21° 266° (W) 23:52:52 437.250
POLYITAN 1 29 Mar 23:46:28 23:50:44 84° 103° (ESE) 23:54:59 437.675
UNISAT 6 29 Mar 23:51:25 23:55:48 43° 286° (WNW) 00:00:12 437.425
TIGRISAT 30 Mar 00:01:36 00:05:46 35° 287° (WNW) 00:09:57 435.000
PCSat 30 Mar 00:09:51 00:15:16 67° 62° (ENE) 00:20:38 145.827
ESTCUBE 1 30 Mar 00:17:28 00:20:53 20° 266° (W) 00:24:11 437.505/2401.250
YUBILEINY 30 Mar 00:20:01 00:28:03 39° 75° (ENE) 00:36:10 435.215
QB50P1 30 Mar 00:23:47 00:27:37 34° 287° (WNW) 00:31:25 145.935-145.965
DUCHIFAT 1 30 Mar 00:25:20 00:29:10 33° 287° (WNW) 00:32:55 145.980
ANTELSAT 30 Mar 00:33:18 00:36:14 16° 291° (WNW) 00:38:59 437.575/2403.000
SWISSCUBE 30 Mar 00:35:17 00:38:35 19° 69° (ENE) 00:42:03 437.505
BEESAT 30 Mar 00:38:12 00:41:27 19° 69° (ENE) 00:44:53 436.000
QB50P2 30 Mar 00:39:14 00:42:36 23° 289° (WNW) 00:45:52 145.880/145.840
BUGSAT 1 30 Mar 01:04:47 01:07:18 16° 290° (WNW) 01:09:39 437.445
POPSAT HIP 1 30 Mar 01:09:49 01:11:05 11° 292° (WNW) 01:12:06 437.405
TISAT 1 30 Mar 01:10:05 01:13:34 24° 264° (W) 01:16:58 437.305
SPROUT 30 Mar 01:23:43 01:26:18 15° 268° (W) 01:28:42 437.525
ITUPSAT 1 30 Mar 01:23:50 01:28:32 58° 74° (ENE) 01:33:17 437.325
RS-15 30 Mar 01:41:27 01:48:03 17° 26° (NNE) 01:55:18 29.354- 29.394
PCSat 30 Mar 01:55:39 01:58:11 13° 255° (WSW) 02:00:22 145.827
Oscar 19 30 Mar 02:10:22 02:15:34 76° 102° (ESE) 02:20:45 437.125/150
SWISSCUBE 30 Mar 02:11:45 02:16:13 37° 262° (W) 02:20:40 437.505
KKS-1 30 Mar 02:12:43 02:16:39 33° 72° (ENE) 02:20:39 437.445
BEESAT 30 Mar 02:14:36 02:19:04 38° 262° (W) 02:23:31 436.000
YUBILEINY 30 Mar 02:16:52 02:24:52 39° 272° (W) 02:32:39 435.215
SO-50 30 Mar 02:28:48 02:29:57 11° 42° (NE) 02:31:22 436.795
Gurwin Techsat 1B 30 Mar 02:31:11 02:35:39 28° 95° (E) 02:40:13 435.225
STARS 30 Mar 02:42:56 02:47:05 45° 74° (ENE) 02:51:18 437.465
ITUPSAT 1 30 Mar 03:04:58 03:06:52 12° 270° (W) 03:08:27 437.325
ITAMSAT 1 30 Mar 03:17:21 03:22:33 79° 285° (WNW) 03:27:42 435.822/435.867
VERMONT LUNAR 30 Mar 03:25:46 03:27:28 13° 143° (SE) 03:29:14 437.305
AIST 1 30 Mar 03:38:56 03:42:52 33° 92° (E) 03:46:51
O/OREOS (USA 219) 30 Mar 03:49:03 03:53:36 73° 108° (ESE) 03:58:12 437.305
KKS-1 30 Mar 03:50:19 03:53:24 18° 267° (W) 03:56:21 437.445
RS-15 30 Mar 03:52:38 04:03:54 57° 54° (NE) 04:15:44 29.354- 29.394
Oscar 19 30 Mar 03:52:39 03:54:22 11° 295° (WNW) 03:55:45 437.125/150
MOZHAYETS 4 30 Mar 03:53:06 03:56:33 22° 70° (ENE) 04:00:09
SO-50 30 Mar 04:06:23 04:11:21 83° 61° (ENE) 04:16:15 436.795
ISS 30 Mar 04:07:36 04:07:52 10° 25° (NNE) 04:08:14 145.825
Gurwin Techsat 1B 30 Mar 04:11:00 04:15:37 30° 290° (WNW) 04:20:07 435.225
PHONESAT 2.4 30 Mar 04:12:08 04:13:51 13° 142° (SE) 04:15:41 2401.200-2431.200
HORYU 2 30 Mar 04:20:09 04:24:41 87° 103° (ESE) 04:29:13 437.375
STARS 30 Mar 04:21:52 04:23:51 12° 269° (W) 04:25:36 437.465
AUBIESAT-1 30 Mar 04:27:27 04:30:32 22° 65° (ENE) 04:33:55 437.475
JAS-2 30 Mar 04:39:03 04:46:35 59° 99° (E) 04:53:26 435.910
AO-7 30 Mar 04:39:52 04:48:04 63° 103° (ESE) 04:56:16 29.400- 29.500
M-CUBED/EXP-1 PRIME 30 Mar 04:51:43 04:55:31 48° 69° (ENE) 04:59:41 437.505
VERMONT LUNAR 30 Mar 05:01:30 05:04:51 87° 149° (SSE) 05:08:12 437.305
AIST 1 30 Mar 05:17:49 05:20:41 16° 287° (WNW) 05:23:21
MOZHAYETS 4 30 Mar 05:29:34 05:33:39 30° 264° (W) 05:37:41
ISS 30 Mar 05:41:34 05:44:48 73° 44° (NE) 05:48:00 145.825
CUBESAT XI-V 30 Mar 05:42:04 05:45:47 24° 71° (ENE) 05:49:37 437.345
CUTE-I 30 Mar 05:46:29 05:48:30 12° 90° (E) 05:50:53 437.470
Cubesat XI-IV 30 Mar 05:46:47 05:48:57 13° 90° (E) 05:51:28 437.490
PHONESAT 2.4 30 Mar 05:48:20 05:51:51 81° 156° (SSE) 05:55:23 2401.200-2431.200
AUBIESAT-1 30 Mar 06:01:57 06:05:16 25° 261° (W) 06:08:46 437.475
RS-15 30 Mar 06:05:36 06:16:06 39° 252° (WSW) 06:26:37 29.354- 29.394
PRISM 30 Mar 06:10:08 06:14:01 38° 73° (ENE) 06:17:58 437.425
JAS-2 30 Mar 06:25:01 06:31:03 25° 296° (WNW) 06:36:31 435.910
M-CUBED/EXP-1 PRIME 30 Mar 06:29:51 06:30:54 11° 267° (W) 06:31:41 437.505
GONETS M04 30 Mar 06:33:32 06:42:16 63° 80° (E) 06:51:02
AO-7 30 Mar 06:33:44 06:40:22 26° 299° (WNW) 06:46:44 29.400- 29.500
VERMONT LUNAR 30 Mar 06:39:46 06:42:46 30° 351° (N) 06:45:47 437.305
STRAND 1 30 Mar 06:47:49 06:52:54 69° 76° (ENE) 06:58:03 437.568
DANDE 30 Mar 07:12:14 07:15:18 18° 78° (ENE) 07:19:10 436.750
CUBESAT XI-V 30 Mar 07:19:04 07:23:08 28° 265° (W) 07:27:08 437.345
CUTE-I 30 Mar 07:23:51 07:29:07 64° 286° (WNW) 07:34:21 437.470
Cubesat XI-IV 30 Mar 07:24:19 07:29:35 63° 286° (WNW) 07:34:49 437.490
PHONESAT 2.4 30 Mar 07:27:12 07:30:25 32° 350° (N) 07:33:39 2401.200-2431.200
PRISM 30 Mar 07:47:24 07:49:43 14° 268° (W) 07:51:50 437.425
CUSAT 1 30 Mar 07:58:48 08:03:27 80° 81° (E) 08:09:44 437.405
BRITE-PL 30 Mar 08:17:21 08:20:32 21° 95° (E) 08:23:57 437.365/2234.400
VERMONT LUNAR 30 Mar 08:18:02 08:21:00 29° 8° (N) 08:23:59 437.305
CANX-2 30 Mar 08:26:06 08:28:25 15° 92° (E) 08:30:56 2200.000
STRAND 1 30 Mar 08:31:09 08:32:41 11° 271° (W) 08:33:50 437.568
GONETS M04 30 Mar 08:31:49 08:38:31 24° 275° (W) 08:44:49
CUTE 1.7 + AOD 2 30 Mar 08:39:18 08:42:19 19° 93° (E) 08:45:29 437.475
DOVE 4 30 Mar 08:43:53 08:46:52 18° 94° (E) 08:50:07 437.250
DANDE 30 Mar 08:54:20 08:58:28 36° 263° (W) 09:03:49 436.750
BEESAT 2 30 Mar 08:56:38 08:58:42 14° 110° (ESE) 09:00:57 435.950
GOMX 1 30 Mar 08:58:39 09:02:45 40° 99° (E) 09:07:05 467.674
AAUSAT CUBESAT 2 30 Mar 09:00:14 09:03:12 19° 93° (E) 09:06:17 437.432
PHONESAT 2.4 30 Mar 09:06:07 09:09:17 30° 7° (N) 09:12:28 2401.200-2431.200
SEEDS 30 Mar 09:06:29 09:10:20 33° 97° (E) 09:14:14 437.485
HO-68 30 Mar 09:18:12 09:25:19 61° 102° (ESE) 09:32:24 435.675
COMPASS 1 30 Mar 09:27:16 09:31:23 48° 99° (E) 09:35:29 437.405
BEESAT 3 30 Mar 09:30:36 09:34:27 43° 115° (ESE) 09:38:23 437.485
Oscar 11 30 Mar 09:32:32 09:35:47 21° 94° (E) 09:39:09 145.826/435.025
FUNcube-1 30 Mar 09:45:35 09:48:01 15° 92° (E) 09:50:42 145.935
UWE-3 30 Mar 09:51:34 09:55:04 23° 95° (E) 09:58:44 435.000/436.395/437.385
ANTELSAT 30 Mar 09:51:45 09:55:02 23° 71° (ENE) 09:58:28 437.575/2403.000
CINEMA 3 30 Mar 09:52:32 09:56:56 57° 100° (E) 10:01:33 145.822/145.860
QB50P2 30 Mar 09:54:44 09:56:16 12° 68° (ENE) 09:58:02 145.880/145.840
BRITE-PL 30 Mar 09:55:31 09:59:05 26° 287° (WNW) 10:02:45 437.365/2234.400
VERMONT LUNAR 30 Mar 09:55:36 09:58:58 82° 23° (NNE) 10:02:21 437.305
ZACube-1 30 Mar 09:58:05 10:01:26 22° 94° (E) 10:04:58 437.345
CUBEBUG 2 30 Mar 09:58:14 10:02:17 34° 97° (E) 10:06:29 437.445
CANX-2 30 Mar 10:00:32 10:04:33 38° 286° (WNW) 10:08:32 2200.000
DELFI C3 30 Mar 10:08:17 10:12:10 41° 98° (E) 10:16:03 145.870
AIST 2 30 Mar 10:12:28 10:16:17 34° 113° (ESE) 10:20:12 435.215
CUTE 1.7 + AOD 2 30 Mar 10:14:33 10:18:18 29° 287° (WNW) 10:22:00 437.475
BUGSAT 1 30 Mar 10:16:20 10:18:35 15° 70° (ENE) 10:21:01 437.445
DOVE 4 30 Mar 10:20:46 10:24:44 33° 286° (WNW) 10:28:50 437.250
POPSAT HIP 1 30 Mar 10:21:18 10:24:40 24° 72° (ENE) 10:28:09 437.405
NANOSAT C BR1 30 Mar 10:31:06 10:34:49 32° 73° (ENE) 10:38:35 145.865
BEESAT 2 30 Mar 10:32:38 10:36:32 40° 303° (WNW) 10:40:28 435.950
AAUSAT CUBESAT 2 30 Mar 10:35:13 10:38:53 28° 288° (WNW) 10:42:28 437.432
POLYITAN 1 30 Mar 10:36:06 10:39:59 37° 74° (ENE) 10:43:54 437.675
GOMX 1 30 Mar 10:38:10 10:40:41 15° 290° (WNW) 10:43:04 467.674
UKube-1 30 Mar 10:38:42 10:42:48 42° 99° (E) 10:46:55 .
HUMSAT D 30 Mar 10:40:41 10:44:30 31° 97° (E) 10:48:22 437.325/437.525
SEEDS 30 Mar 10:43:04 10:45:56 17° 290° (WNW) 10:48:38 437.485
PHONESAT 2.4 30 Mar 10:44:23 10:47:55 80° 21° (NNE) 10:51:29 2401.200-2431.200
UNISAT 6 30 Mar 10:46:42 10:50:57 76° 258° (WSW) 10:55:16 437.425
DX 1 30 Mar 10:50:08 10:54:26 63° 101° (E) 10:58:44 434.975-435.025
TIGRISAT 30 Mar 10:56:32 11:00:44 59° 260° (W) 11:04:57 435.000
COMPASS 1 30 Mar 11:04:58 11:06:42 12° 292° (WNW) 11:08:13 437.405
HO-68 30 Mar 11:07:06 11:12:34 23° 297° (WNW) 11:17:47 435.675
Oscar 11 30 Mar 11:08:15 11:11:58 27° 288° (WNW) 11:15:38 145.826/435.025
BEESAT 3 30 Mar 11:10:16 11:12:46 15° 311° (NW) 11:15:10 437.485
QB50P1 30 Mar 11:12:21 11:16:34 76° 258° (WSW) 11:20:48 145.935-145.965
DUCHIFAT 1 30 Mar 11:13:36 11:17:48 75° 258° (WSW) 11:22:01 145.980
50 SAT 30 Mar 11:14:51 11:18:49 52° 99° (E) 11:22:48 437.505
FUNcube-1 30 Mar 11:20:24 11:24:33 40° 286° (WNW) 11:28:44 145.935
QB50P2 30 Mar 11:27:45 11:31:49 47° 261° (W) 11:35:54 145.880/145.840
UWE-3 30 Mar 11:27:49 11:31:35 27° 288° (WNW) 11:35:21 435.000/436.395/437.385
ANTELSAT 30 Mar 11:28:16 11:31:46 24° 265° (W) 11:35:14 437.575/2403.000
CUBEBUG 1 30 Mar 11:31:37 11:35:28 32° 97° (E) 11:39:22 437.445
CINEMA 3 30 Mar 11:32:08 11:33:48 12° 291° (WNW) 11:35:13 145.822/145.860
ZACube-1 30 Mar 11:34:00 11:37:49 28° 287° (WNW) 11:41:36 437.345
VERMONT LUNAR 30 Mar 11:34:13 11:36:24 16° 216° (SW) 11:38:32 437.305
VELOX 1 30 Mar 11:34:18 11:38:44 85° 102° (ESE) 11:43:08 145.980
CUBEBUG 2 30 Mar 11:35:36 11:38:48 19° 289° (WNW) 11:41:54 437.445
AISAT 30 Mar 11:39:28 11:43:53 81° 283° (WNW) 11:48:17 437.250
DELFI C3 30 Mar 11:45:07 11:47:00 13° 291° (WNW) 11:48:42 145.870
BUGSAT 1 30 Mar 11:49:57 11:53:49 36° 262° (W) 11:57:38 437.445
AIST 2 30 Mar 11:51:50 11:55:00 19° 309° (NW) 11:58:06 435.215
POPSAT HIP 1 30 Mar 11:57:13 12:00:32 22° 265° (W) 12:03:45 437.405
NANOSAT C BR1 30 Mar 12:08:01 12:10:47 16° 267° (W) 12:13:24 145.865
ESTCUBE 1 30 Mar 12:12:38 12:17:08 71° 283° (WNW) 12:21:36 437.505/2401.250
POLYITAN 1 30 Mar 12:13:48 12:16:07 14° 268° (W) 12:18:14 437.675
UKube-1 30 Mar 12:16:17 12:18:38 14° 292° (WNW) 12:20:48 .
HUMSAT D 30 Mar 12:17:06 12:20:04 18° 290° (WNW) 12:22:55 437.325/437.525
PHONESAT 2.4 30 Mar 12:23:30 12:26:01 18° 216° (SW) 12:28:27 2401.200-2431.200
ITAMSAT 1 30 Mar 12:56:18 12:57:45 11° 64° (ENE) 12:59:33 435.822/435.867
TISAT 1 30 Mar 12:57:33 13:01:44 68° 101° (E) 13:05:54 437.305
PCSat 30 Mar 13:07:25 13:10:01 14° 105° (ESE) 13:12:56 145.827
CUBEBUG 1 30 Mar 13:08:39 13:11:38 18° 290° (WNW) 13:14:28 437.445
SPROUT 30 Mar 13:12:06 13:16:21 64° 284° (WNW) 13:20:35 437.525
YUBILEINY 30 Mar 13:15:43 13:24:03 51° 91° (E) 13:32:32 435.215
Oscar 19 30 Mar 13:23:29 13:28:35 74° 75° (ENE) 13:33:42 437.125/150
ITUPSAT 1 30 Mar 13:29:12 13:32:39 20° 94° (E) 13:36:14 437.325
Gurwin Techsat 1B 30 Mar 13:48:39 13:53:14 31° 71° (ENE) 13:57:56 435.225
AO-7 30 Mar 13:49:55 13:51:13 11° 52° (NE) 13:53:09 29.400- 29.500
JUGNU 30 Mar 13:51:26 13:55:18 18° 172° (S) 13:59:12 437.505
O/OREOS (USA 219) 30 Mar 14:02:51 14:07:24 74° 70° (ENE) 14:11:53 437.305
SWISSCUBE 30 Mar 14:15:30 14:20:17 76° 102° (ESE) 14:25:03 437.505
BEESAT 30 Mar 14:18:15 14:23:02 74° 102° (ESE) 14:27:48 436.000
ITAMSAT 1 30 Mar 14:31:29 14:36:42 76° 257° (WSW) 14:41:57 435.822/435.867
STARS 30 Mar 14:38:48 14:40:04 11° 91° (E) 14:41:37 437.465
PCSat 30 Mar 14:47:37 14:52:58 62° 298° (WNW) 14:58:21 145.827
JAS-2 30 Mar 14:48:06 14:52:34 19° 62° (ENE) 14:57:37 435.910
SRMSAT 30 Mar 14:53:25 14:56:47 15° 169° (S) 15:00:12 437.500
ITUPSAT 1 30 Mar 15:06:19 15:10:39 34° 288° (WNW) 15:14:54 437.325
YUBILEINY 30 Mar 15:13:41 15:21:16 30° 289° (WNW) 15:28:38 435.215
HORYU 2 30 Mar 15:14:50 15:19:05 49° 74° (ENE) 15:23:24 437.375
AIST 1 30 Mar 15:27:02 15:31:21 87° 83° (E) 15:35:37
Gurwin Techsat 1B 30 Mar 15:28:45 15:33:14 27° 265° (W) 15:37:38 435.225
AO-7 30 Mar 15:34:30 15:42:36 61° 69° (ENE) 15:50:45 29.400- 29.500
JUGNU 30 Mar 15:39:26 15:43:41 20° 182° (S) 15:47:55 437.505
KKS-1 30 Mar 15:43:30 15:47:56 70° 284° (WNW) 15:52:21 437.445
STARS 30 Mar 16:12:36 16:16:53 50° 286° (WNW) 16:21:09 437.465
JAS-2 30 Mar 16:29:59 16:36:44 76° 259° (WSW) 16:44:19 435.910
SRMSAT 30 Mar 16:41:04 16:45:19 20° 179° (S) 16:49:33 437.500
HORYU 2 30 Mar 16:54:21 16:56:07 12° 269° (W) 16:57:35 437.375
CUTE-I 30 Mar 17:04:32 17:07:35 16° 66° (ENE) 17:10:53 437.470
Cubesat XI-IV 30 Mar 17:05:02 17:08:11 17° 66° (ENE) 17:11:34 437.490
MOZHAYETS 4 30 Mar 17:27:48 17:32:29 86° 104° (ESE) 17:37:06
JUGNU 30 Mar 17:28:51 17:32:04 15° 192° (SSW) 17:35:11 437.505
AO-7 30 Mar 17:29:15 17:35:56 25° 266° (W) 17:42:17 29.400- 29.500
GONETS M04 30 Mar 17:39:57 17:42:20 12° 80° (E) 17:45:33
AUBIESAT-1 30 Mar 17:46:03 17:50:26 35° 101° (E) 17:54:42 437.475
BEESAT 3 30 Mar 17:55:39 17:56:13 10° 45° (NE) 17:57:01 437.485
M-CUBED/EXP-1 PRIME 30 Mar 18:11:21 18:16:14 78° 107° (ESE) 18:20:54 437.505
RS-15 30 Mar 18:11:46 18:22:00 51° 111° (ESE) 18:32:28 29.354- 29.394
SO-50 30 Mar 18:17:11 18:21:42 65° 117° (ESE) 18:26:24 436.795
SRMSAT 30 Mar 18:30:06 18:33:50 17° 189° (S) 18:37:31 437.500
CUTE-I 30 Mar 18:41:59 18:47:16 56° 259° (W) 18:52:32 437.470
Cubesat XI-IV 30 Mar 18:42:37 18:47:53 55° 260° (W) 18:53:09 437.490
BEESAT 2 30 Mar 18:55:33 18:59:22 36° 56° (NE) 19:03:09 435.950
STRAND 1 30 Mar 19:02:37 19:07:05 31° 96° (E) 19:11:36 437.568
CUBESAT XI-V 30 Mar 19:18:51 19:23:29 83° 283° (WNW) 19:28:04 437.345
AUBIESAT-1 30 Mar 19:21:16 19:25:00 22° 295° (WNW) 19:28:32 437.475
BRITE-PL 30 Mar 19:25:31 19:28:32 18° 71° (ENE) 19:31:35 437.365/2234.400
GONETS M04 30 Mar 19:29:23 19:38:03 81° 95° (E) 19:46:49
BEESAT 3 30 Mar 19:30:44 19:34:49 70° 244° (WSW) 19:38:50 437.485
PRISM 30 Mar 19:31:31 19:35:41 73° 284° (WNW) 19:39:47 437.425
HO-68 30 Mar 19:43:20 19:49:20 31° 66° (ENE) 19:55:31 435.675
DOVE 4 30 Mar 19:48:15 19:49:36 12° 69° (ENE) 19:51:10 437.250
M-CUBED/EXP-1 PRIME 30 Mar 19:49:01 19:50:29 11° 300° (WNW) 19:51:39 437.505
SEEDS 30 Mar 19:56:23 19:58:45 15° 69° (ENE) 20:01:19 437.485
SO-50 30 Mar 20:00:10 20:02:47 14° 315° (NW) 20:05:16 436.795
GOMX 1 30 Mar 20:03:55 20:07:46 29° 73° (ENE) 20:11:30 467.674
AIST 2 30 Mar 20:15:45 20:19:59 84° 245° (WSW) 20:24:09 435.215
COMPASS 1 30 Mar 20:15:48 20:18:52 21° 71° (ENE) 20:22:05 437.405
DANDE 30 Mar 20:23:42 20:25:56 18° 97° (E) 20:28:00 436.750
RS-15 30 Mar 20:24:24 20:34:37 42° 311° (NW) 20:44:51 29.354- 29.394
Oscar 11 30 Mar 20:26:12 20:27:06 11° 67° (ENE) 20:28:16 145.826/435.025
BEESAT 2 30 Mar 20:34:43 20:37:15 15° 250° (WSW) 20:39:34 435.950
STRAND 1 30 Mar 20:42:00 20:46:11 25° 291° (WNW) 20:50:15 437.568
ISS 30 Mar 20:43:18 20:44:53 13° 128° (SE) 20:46:35 145.825
UWE-3 30 Mar 20:47:47 20:48:55 11° 68° (ENE) 20:50:18 435.000/436.395/437.385
CANX-2 30 Mar 20:49:20 20:53:33 88° 258° (WSW) 20:57:50 2200.000
CINEMA 3 30 Mar 20:51:31 20:55:12 31° 73° (ENE) 20:58:54 145.822/145.860
DELFI C3 30 Mar 20:53:38 20:56:09 17° 70° (ENE) 20:58:49 145.870
ZACube-1 30 Mar 20:53:44 20:54:07 10° 68° (ENE) 20:54:46 437.345
CUBEBUG 2 30 Mar 20:54:25 20:57:03 17° 70° (ENE) 20:59:51 437.445
BRITE-PL 30 Mar 21:02:31 21:06:55 35° 262° (W) 21:11:01 437.365/2234.400
CUTE 1.7 + AOD 2 30 Mar 21:03:05 21:07:16 66° 259° (W) 21:11:31 437.475
CUSAT 1 30 Mar 21:07:07 21:09:57 42° 279° (W) 21:12:28 437.405
AAUSAT CUBESAT 2 30 Mar 21:21:44 21:25:52 69° 259° (W) 21:30:03 437.432
DOVE 4 30 Mar 21:22:51 21:27:06 48° 261° (W) 21:31:11 437.250
HO-68 30 Mar 21:30:06 21:36:52 44° 261° (W) 21:43:38 435.675
GONETS M04 30 Mar 21:30:24 21:36:06 18° 295° (WNW) 21:41:18
SEEDS 30 Mar 21:30:25 21:34:18 36° 263° (W) 21:38:12 437.485
UKube-1 30 Mar 21:30:36 21:33:59 23° 71° (ENE) 21:37:28 .
HUMSAT D 30 Mar 21:30:45 21:32:47 14° 69° (ENE) 21:35:02 437.325/437.525
DX 1 30 Mar 21:42:18 21:46:13 34° 72° (ENE) 21:50:11 434.975-435.025
GOMX 1 30 Mar 21:42:36 21:45:57 20° 265° (W) 21:49:03 467.674
COMPASS 1 30 Mar 21:50:56 21:54:28 25° 265° (W) 21:57:57 437.405
50 SAT 30 Mar 21:58:23 22:01:03 18° 71° (ENE) 22:03:52 437.505
Oscar 11 30 Mar 21:58:38 22:02:51 56° 260° (W) 22:07:07 145.826/435.025
FUNcube-1 30 Mar 22:12:25 22:16:33 81° 258° (WSW) 22:20:43 145.935
ISS 30 Mar 22:17:55 22:21:02 42° 321° (NW) 22:24:09 145.825
UWE-3 30 Mar 22:21:05 22:25:05 47° 261° (W) 22:29:07 435.000/436.395/437.385
CUBEBUG 1 30 Mar 22:25:05 22:28:02 18° 70° (ENE) 22:31:06 437.445
ZACube-1 30 Mar 22:26:03 22:30:05 52° 260° (W) 22:34:09 437.345
DELFI C3 30 Mar 22:27:29 22:31:07 30° 263° (W) 22:34:44 145.870
VELOX 1 30 Mar 22:28:19 22:32:33 46° 74° (ENE) 22:36:49 145.980
CINEMA 3 30 Mar 22:29:50 22:32:33 16° 267° (W) 22:35:04 145.822/145.860
CUBEBUG 2 30 Mar 22:29:55 22:33:36 30° 263° (W) 22:37:14 437.445
AISAT 30 Mar 22:33:36 22:37:56 56° 75° (ENE) 22:42:18 437.250
UNISAT 6 30 Mar 22:42:28 22:46:30 30° 96° (E) 22:50:38 437.425
RS-15 30 Mar 22:46:26 22:51:23 13° 343° (NNW) 22:56:01 29.354- 29.394
TIGRISAT 30 Mar 22:51:46 22:56:02 37° 98° (E) 23:00:23 435.000
QB50P1 30 Mar 23:01:58 23:05:16 23° 95° (E) 23:08:40 145.935-145.965
DUCHIFAT 1 30 Mar 23:02:53 23:06:10 22° 95° (E) 23:09:33 145.980
HUMSAT D 30 Mar 23:04:29 23:08:17 37° 262° (W) 23:12:06 437.325/437.525
UKube-1 30 Mar 23:06:26 23:10:03 25° 264° (W) 23:13:36 .
ESTCUBE 1 30 Mar 23:08:20 23:12:50 67° 76° (ENE) 23:17:23 437.505/2401.250
QB50P2 30 Mar 23:16:55 23:20:49 35° 98° (E) 23:24:44 145.880/145.840
DX 1 30 Mar 23:19:39 23:22:35 17° 267° (W) 23:25:22 434.975-435.025
ANTELSAT 30 Mar 23:22:39 23:27:18 88° 100° (E) 23:32:00 437.575/2403.000
